loading
DOY 173 | 2024-06-21T04:12:11Z

THOR ABLESTAR DEB, 335

Orbit data source: Space-Track

THOR ABLESTAR DEB, 335 is space debris in LEO originally from a launch on Thu, 29 Jun 1961 UTC launched from the Air Force Eastern Test Range (AFETR). Debris objects in space refer to the collection of defunct objects orbiting the Earth. Examples of debris include non-operational satellites, rocket bodies, and fragments generated from explosions, collisions, or faulty payload assembly.

Loading next visibility...
Loading greatness...
THOR ABLESTAR DEB details
NORAD ID335
COSPAR ID
1961-015DM
Orbit
LEO
Last TLE update2 days ago
Origin
Flag of USUSAF SSD (US)
ManufacturerUnknown
BusUnknown
MotorUnknown
MassWet unknown, Dry mass unknown
Launch date (UTC)
1961-06-29 (63 years ago)
Launch vehicleUnknown
Launch site
Air Force Eastern Test Range (AFETR)
Object type
Payload
Rocket body
Debris
Radar Cross SectionSmall (<0.1 m²)
Predictive object data (real-time)
Latitude-45.18298°
Longitude81.03094°
Altitude814.962 km
Speed7.459 km/s
Apparent Right ascension07h 17m 07s
Apparent Declination-61° 11' 60"
Sunlit
Object is in daylight
Predictive observer data (real-time)
Local Sidereal Time15:11:09
Azimuth218.904° SW
Elevation-47.616°
Doppler factor1
Orbital elements
Apogee854.054 km
Perigee793.442 km
Semi-major axis7,201.885 km
Eccentricity0.0042081
Inclination66.8393°
RAAN196.9099°
Arg. of periapsis338.1751°
True anomaly21.9345°
Mean anomaly21.7549°
Mean motion3.55119 °/min
BSTAR0.00041102
Period101.37 mins
Definitive object data (Epoch: 2024-06-19T11:52:05.813Z)
Latitude0.00001°
Longitude110.68559°
Altitude799.35 km
Speed7.469 km/s
True Right ascension13h 07m 38s
True Declination0° 00' 00"
Sunlit
Object was in daylight at TLE epoch
TLE from 2 days ago
0 THOR ABLESTAR DEB
1 00335U 61015DM  24171.49451173  .00000801  00000-0  41102-3 0  9993
2 00335  66.8393 196.9099 0042081 338.1751  21.7549 14.19991477223865
Epoch: 2024-06-19T11:52Z
No data available

THOR ABLESTAR DEB Visibility forecast

Observer location: 39.9160978°, -105.1181434, 0m alt.

THOR ABLESTAR DEB is not visible in the next 10 days
Span
Click to sort rows by Start time (UTC) header in descending order
Start Az.
Max El. time (UTC)
Max El. Az.
Max El.
End time (UTC)
End Az.